EGGPEGNS

Guest
Details From EGGP - Liverpool
To EGNS - Isle Of Man Ronaldsway
Flight Number -
Tags decoded
Created
Modified
Stats Distance 78 nm / 144 km
Max Altitude 0 ft / 0 m
Waypoints 2
Social Downloads 3
Likes 0
Share VATSIM

Download

Looking for another format? Having issues loading an existing format? Contact us
Advertisement - Login to hide

Notes

Requested: EGGP EGNS

Route

EGGP EGNS

ID Type Via Altitude Latitude Longitude Leg Dist Tot Dist Heading (true) Name
O EGGP APT - 0 ft / 0 m 53.33363˚ -2.84977˚ - 0 nm - Liverpool
O EGNS APT - 0 ft / 0 m 54.08283˚ -4.62548˚ 77 nm 77 nm 306° / 305° Isle Of Man Ronaldsway

Altitude Profile

Advertisement - Login to hide

EGGP

Details ICAO EGGP (LPL)
Name Liverpool
Region United Kingdom
Timezone Europe/London (UTC+0.0)
Stats Elevation 80 ft / 24 m (AMSL)
Location 53.333632° -2.849769°
Runways 1
Magnetic Variation 1.675° W

METAR

EGGP 140220Z 27023G35KT 9999 SHRA SCT011 BKN016 05/04 Q0988

Decode

TAF

TAF EGGP 132300Z 1400/1424 27020KT 9999 SCT016 TEMPO 1400/1412 28023G33KT PROB40 TEMPO 1400/1424 4000 SHRAGS BKN005 BKN010CB BECMG 1412/1415 23010KT BECMG 1421/1424 32010KT

Decode

Departure Runways

ID Width Length Bearing (true) Bearing (mag) Surface Threshold Offset Overrun Length
09 151 ft / 46 m 7,466 ft / 2,276 m 85.59° 87.26° Asphalt 180 ft / 55 m 0 ft / 0 m
27 151 ft / 46 m 7,466 ft / 2,276 m 265.61° 267.28° Asphalt 0 ft / 0 m 0 ft / 0 m

EGNS

Details ICAO EGNS (IOM)
Name Isle Of Man Ronaldsway
Region United Kingdom
Timezone Europe/Isle_of_Man (UTC+0.0)
Stats Elevation 52 ft / 16 m (AMSL)
Location 54.082833° -4.625475°
Runways 2
Magnetic Variation 2.489° W

METAR

EGNS 140150Z 26020KT 230V290 9999 SCT015 BKN022 05/02 Q0987

Decode

TAF

Not found

Destination Runways

ID Width Length Bearing (true) Bearing (mag) Surface Threshold Offset Overrun Length
03 151 ft / 46 m 4,113 ft / 1,254 m 27.91° 30.40° Asphalt 492 ft / 150 m 0 ft / 0 m
08 151 ft / 46 m 6,016 ft / 1,834 m 77.93° 80.42° Asphalt 545 ft / 166 m 0 ft / 0 m
21 151 ft / 46 m 4,113 ft / 1,254 m 207.92° 210.41° Asphalt 0 ft / 0 m 0 ft / 0 m
26 151 ft / 46 m 6,016 ft / 1,834 m 257.95° 260.44° Asphalt 486 ft / 148 m 0 ft / 0 m

Approach Navaids

Runway Type Ident Frequency Range Bearing (true) Bearing (mag) Slope Elevation
08 Localiser IRH 111.15 MHz 18 nm / 33 km 82.35° 84.84° - 29 ft / 9 m (AMSL)
08 Glidescope IRH 111.15 MHz 10 nm / 19 km 82.35° 84.84° 3.00° 33 ft / 10 m (AMSL)
08 DME IRH 111.15 MHz 18 nm / 33 km - - - 33 ft / 10 m (AMSL)
26 Localiser IRY 111.15 MHz 18 nm / 33 km 257.92° 260.41° - 29 ft / 9 m (AMSL)
26 Glidescope IRY 111.15 MHz 10 nm / 19 km 257.94° 260.43° 3.00° 33 ft / 10 m (AMSL)
26 DME IRY 111.15 MHz 18 nm / 33 km - - - 33 ft / 10 m (AMSL)

Popular Alternatives